ONEWEB-0025, 45138

Orbit data source: Space-Track

ONEWEB-0025, 45138 is a payload satellite owned by One Web (UK) in LEO that was launched on Thu, 06 Feb 2020 UTC via a SOYUZ-2-1B launch vehicle from the Tyuratam Missile And Space Complex (TTMTR). Payload-class satellites include a variety of spacecraft equipped with specific instruments for various scientific and technological missions. These include communications satellites like Starlink; space stations such as the ISS; scientific satellites like the Hubble; Earth observation satellites from companies like Planet Labs, Umbra, and HawkEye 360; GPS; miniature CubeSats for education and research; and military/defense satellites.

Loading next visibility...
Identifier
45138, 2020-008H
Orbit
LEO
Country
Flag of UKUK
Related business
Manufacturer
One Web
Mission
Operational Commercial Communications
Bus & Motor
ARROW, Unknown motor
Mass
148 kg wet, ~140 kg dry
Launch date (UTC)
2020-02-06 (6 years ago)
Launch vehicle
SOYUZ-2-1B
Launch site
Tyuratam Missile And Space Complex (TTMTR)
Object type
Payload
Rocket body
Debris
Shape & HBR
Trap Box + 2 Pan, 6.7 m
Radar Cross Section
3.464 m², Large (>1 m²)

Expand to show TLE details & history
Last TLE update: 17 hours ago

TLE from 17 hours ago
0 ONEWEB-0025
1 45138U 20008H   25287.19082275  .00000486  00000-0  13571-2 0  9996
2 45138  87.8764  85.2840 0001066  79.6695 280.4552 13.10376014276350
Epoch: 2025-10-14T04:34Z
TLE epoch observation values (Epoch: 2025-10-14T04:34:47.085Z)
Latitude
-0.00008°
Longitude
-6.39499°
Altitude
1,224.445 km
Speed
7.242 km/s
True Right ascension
05h 41m 08s
True Declination
0° 00' 00"
Sunlit
Object was in daylight at epoch
Visualization orbit readout
Latitude
Unknown
Longitude
Unknown
Altitude
Unknown
Speed
Unknown
Apparent Right ascension
Unknown
Apparent Declination
Unknown
Sunlit
N/A
Visualization observer readout
Local Sidereal Time
15:41:51
Azimuth
Unknown
Elevation
Unknown
Doppler factor
Unknown
Orbital elements
Apogee altitude
1,219.635 km
Perigee altitude
1,218.015 km
Semi-major axis
7,596.962 km
Eccentricity
0.00011
Inclination
87.8764°
RAAN
85.284°
Arg. of periapsis
79.6695°
True anomaly
280.44319°
Mean anomaly
280.4552°
Eccentric anomaly
280.44919°
Mean motion
3.27781 °/min
Orbital period
109.83 mins
BSTAR
0.0013571
Loading maneuver chart data...
Computing Atmospheric mass density...
Loading historical data...
Loading historical data...
Loading historical data...
Loading historical data...
Loading historical data...
Loading historical data...
Loading historical data...

Documentation

Showing up to 5 results
|